Showing default

RROCI-2, 59106

Orbit data source: Space-Track

RROCI-2, 59106 is an American payload satellite in SSO that was launched on Mon, 04 Mar 2024 UTC via an FALCON 9 launch vehicle from the Air Force Western Test Range (AFWTR). Payload-class satellites include a variety of spacecraft equipped with specific instruments for various scientific and technological missions. These include communications satellites like Starlink; space stations such as the ISS; scientific satellites like the Hubble; Earth observation satellites from companies like Planet Labs, Umbra, and HawkEye 360; GPS; miniature CubeSats for education and research; and military/defense satellites.

Loading next visibility...
Identifier
59106, 2024-043J
Orbit
SSO
Country
Flag of USUS
Related business
Manufacturer
Orion Space Sol.
Mission
Operational Commercial Weather
Bus & Motor
CUBESAT 12U, Unknown motor
Mass
19 kg wet, 19 kg dry
Launch date (UTC)
2024-03-04 (2 years ago)
Launch vehicle
FALCON 9
Launch site
Air Force Western Test Range (AFWTR)
Object type
Payload
Rocket body
Debris
Shape & HBR
Box + 2 Pan, 0.5 m
Radar Cross Section
0.126 m², Medium (>0.1 m² and < 1m²)

Expand to show TLE details & history
Last TLE update: 2 days ago

TLE from 2 days ago
0 RROCI-2
1 59106U 24043J   26171.32173205  .00002542  00000-0  20946-3 0  9991
2 59106  97.8496 304.1017 0010748  17.8620 342.2978 14.99950645125236
Epoch: 2026-06-20T07:43Z
TLE epoch observation values (Epoch: 2026-06-20T07:43:17.649Z)
Latitude
-0.00007°
Longitude
-80.25985°
Altitude
562.987 km
Speed
7.584 km/s
True Right ascension
20h 16m 24s
True Declination
0° 00' 00"
Sunlit
Object was in full shadow at epoch
Visualization orbit readout
Latitude
Unknown
Longitude
Unknown
Altitude
Unknown
Speed
Unknown
Apparent Right ascension
Unknown
Apparent Declination
Unknown
Sunlit
N/A
Visualization observer readout
Local Sidereal Time
21:51:19
Azimuth
Unknown
Elevation
Unknown
Doppler factor
Unknown
Orbital elements
Apogee altitude
571.522 km
Perigee altitude
556.599 km
Semi-major axis
6,942.198 km
Eccentricity
0.00107
Inclination
97.8496°
RAAN
304.1017°
Arg. of periapsis
17.862°
True anomaly
342.2603°
Mean anomaly
342.2978°
Eccentric anomaly
342.27906°
Mean motion
3.7523 °/min
Orbital period
95.94 mins
BSTAR
0.00020946
Loading maneuver chart data...
Computing Atmospheric mass density...

Documentation

Showing up to 5 results
|